Miscellaneous Local Product
Issued by NWS North Platte, NE

Home | Current Version | Previous Version | Graphics & Text | Print | Product List | Glossary On
Versions: 1 2 3 4 5 6 7 8 9 10 11 12 13 14 15 16 17 18 19 20 21 22 23 24 25 26 27 28 29 30 31 32 33 34 35 36 37 38 39 40 41 42 43 44 45 46 47 48 49 50
000
AXUS43 KLBF 280210
MISLBF


WESTERN AND NORTH CENTRAL NEBRASKA HOURLY WEATHER ROUNDUP
NATIONAL WEATHER SERVICE NORTH PLATTE NE
900 PM CDT THU AUG 27 2015

NOTE: "FAIR" INDICATES FEW OR NO CLOUDS BELOW 12,000 FEET WITH NO
SIGNIFICANT WEATHER AND/OR OBSTRUCTIONS TO VISIBILITY.

NOTE: STATIONS NOT REPORTING VARIABLES SUCH AS SKY/WEATHER OR
PRESSURE ARE PROVIDED BY THE NEBRASKA DEPARTMENT OF
ROADS...RAWS...AND APRS NETWORKS...AND ARE NOT UNDER
NATIONAL WEATHER SERVICE QUALITY CONTROL.

...OBSERVATIONS IN AND NEAR THE EASTERN PANHANDLE OF NEBRASKA...

CITY           SKY/WX    TMP DP  RH WIND       PRES   REMARKS
PINE RIDGE     CLEAR     64  57  78 N3        30.01S
CHADRON        CLEAR     67  57  70 E6        30.01R
ALLIANCE       CLEAR     67  57  70 N6        30.03R
SIDNEY         PTCLDY    70  55  59 NE7       30.06R
CRESCENT LAKE    N/A     67  57  71 N8          N/A
BIG SPRINGS      N/A     74  61  64 N6          N/A
$$

...OBSERVATIONS IN NORTH CENTRAL NEBRASKA...

CITY           SKY/WX    TMP DP  RH WIND       PRES   REMARKS
THEDFORD       PTCLDY    73  67  83 N6        29.92R
AINSWORTH      CLOUDY    74  68  82 N9        29.91R
O`NEILL        RAIN      71  68  91 E10G20    29.90R
ORD            CLOUDY    77  67  71 S8        29.82S
BROKEN BOW     MOCLDY    70  67  90 W3        29.85S
SPRINGVIEW       N/A     72  67  86 NE6         N/A
SARGENT          N/A     68  67  96 CALM        N/A
CHAMBERS         N/A     72  69  92 E12         N/A
EWING            N/A     73  69  88 E6          N/A
$$

...OBSERVATIONS IN SOUTHWEST NEBRASKA AND FAR NORTHEAST COLORADO...

CITY           SKY/WX    TMP DP  RH WIND       PRES   REMARKS
WRAY           FAIR      75  64  69 NW12      29.98R
HOLYOKE        FAIR      79  61  53 N10       30.00R
IMPERIAL       MOCLDY    76  63  64 N8        29.95R
OGALLALA       CLEAR     74  60  61 N15       29.96R
NORTH PLATTE   PTCLDY    75  65  70 N12       29.89R
MCCOOK         MOCLDY    81  59  47 NW10      29.86R
LEXINGTON      PTCLDY    78  70  76 SE6       29.82S
PAXTON           N/A     76  64  65 NW5         N/A
BRADY            N/A     71  65  82 CALM        N/A
CALLAWAY         N/A     70  67  90 NW12        N/A
$$

...OBSERVATIONS IN CENTRAL LINCOLN COUNTY AREA...

CITY           SKY/WX    TMP DP  RH WIND       PRES   REMARKS
N.P. AIRPORT   PTCLDY    75  65  70 N12       29.89R
N.P. DOWNTOWN    N/A     76  67  73 NW6         N/A
N.P. SOUTHEAST   N/A     76  66  71 N6          N/A
$$

...SOME OBSERVATIONS FROM AROUND THE REGION...

CITY           SKY/WX    TMP DP  RH WIND       PRES   REMARKS
DENVER         MOCLDY    72  53  51 N7        30.15R
LARAMIE        PTCLDY    61  49  64 NW6       30.27S
CHEYENNE       MOCLDY    69  49  48 N5        30.19S
SCOTTSBLUFF    PTCLDY    68  57  68 NE7       30.04R
RAPID CITY     CLEAR     67  61  81 S5        30.00S
PIERRE         CLOUDY    70  67  90 E7        29.92R
WINNER         CLOUDY    72  69  90 E7        29.91S
SIOUX FALLS    TSTM      68  64  87 E14G24    29.96F FOG
OMAHA          CLOUDY    75  67  76 SE17      29.91S
GRAND ISLAND   CLOUDY    76  65  68 S23G33    29.80F
KANSAS CITY    CLOUDY    70  52  52 S10       30.00R
WICHITA        CLOUDY    81  66  60 SE16G26   29.91F
HAYS           MOCLDY    79  64  61 S24G32    29.85R
LIBERAL        MOCLDY    86  55  35 S17       29.91R
GOODLAND       MOCLDY    80  58  46 N13       29.97R
$$



USA.gov is the U.S. government's official web portal to all federal, state and local government web resources and services.